Regional Weather Roundup
Issued by NWS Cleveland, OH

Home | Current Version | Previous Version | Graphics & Text | Print | Product List | Glossary On
Versions: 1 2 3 4 5 6 7 8 9 10 11 12 13 14 15 16 17 18 19 20 21 22 23 24 25 26 27 28 29 30 31 32 33 34 35 36 37 38 39 40 41 42 43 44 45 46 47 48 49 50
000
ASUS41 KCLE 211510
RWRCLE
OHIO REGIONAL WEATHER ROUNDUP
NATIONAL WEATHER SERVICE CLEVELAND, OH
1100 AM EDT MON APR 21 2014

NOTE: "FAIR" INDICATES FEW OR NO CLOUDS BELOW 12,000 FEET WITH NO
SIGNIFICANT WEATHER AND/OR OBSTRUCTIONS TO VISIBILITY.

OHZ001>008-015>018-024>027-034-035-043-044-211600-
   NORTHWEST OHIO

CITY           SKY/WX    TMP DP  RH WIND       PRES   REMARKS
DEFIANCE       CLOUDY    66  43  43 S5        30.00F
FINDLAY        CLOUDY    69  42  37 SW6       30.01F
TOLEDO EXPRESS CLOUDY    69  39  33 W5        29.99F
TOLEDO EXEC    CLOUDY    69  40  34 SW8       30.00F
LIMA           CLOUDY    70  42  36 SW8       30.01F
$$

OHZ009>014-019>023-028>033-038-089-211600-
   NORTHEAST OHIO

CITY           SKY/WX    TMP DP  RH WIND       PRES   REMARKS
CLE-HOPKINS    PTSUNNY   73  38  27 W8        30.03F
CLE-LAKEFRONT  MOSUNNY   70  37  29 W3        29.99F
CUY CO. ARPT   PTSUNNY   73  36  25 NW6       30.02F
LORAIN-ELYRIA  PTSUNNY   73  38  27 W8        30.01F
ASHTABULA      SUNNY     67  32  27 SW6       30.03F
AKRON-CANTON   MOSUNNY   66  30  25 S7        30.04F
WOOSTER        SUNNY     67  36  31 S7        30.04F
MANSFIELD      MOSUNNY   72  36  26 W7        30.03F
YOUNGSTOWN     PTSUNNY   67  30  25 VRB6      30.04F
$$

OHZ042-051>053-060>062-070>072-077>081-211600-
  SOUTHWEST OHIO

CITY           SKY/WX    TMP DP  RH WIND       PRES   REMARKS
CINC-COVINGTON PTSUNNY   71  46  40 SW5       30.05F
CINC-LUNKEN    MOSUNNY   64  51  62 CALM      30.05F
HAMILTON       MOSUNNY   70  46  42 VRB5      30.05F
DAYTON         PTSUNNY   69  43  38 SW9       30.04F
WRIGHT-PAT AFB PTSUNNY   67  47  48 S5        30.03F
DAYTON GENERAL PTSUNNY   69  44  40 SW7       30.03F
WILMINGTON     MOSUNNY   72  44  36 SW10      30.04F
$$

OHZ036-037-039>041-045>050-054>059-063>069-073>076-082>088-211600-
  CENTRAL AND SOUTHEAST OHIO

CITY           SKY/WX    TMP DP  RH WIND       PRES   REMARKS
COLUMBUS       PTSUNNY   68  39  34 S5        30.04F
OSU AIRPORT    PTSUNNY   69  43  38 S6        30.04S
BOLTON FIELD   SUNNY     70  48  46 SW6       30.04F
RICKENBACK AFB PTSUNNY   69  37  31 S6        30.04S
NEWARK         SUNNY     68  33  27 S3        30.03F
MARION         MOSUNNY   68  43  40 SW6       30.03F
LANCASTER      MOSUNNY   71  39  31 SW6       30.04F
ZANESVILLE     SUNNY     68  35  29 S7        30.05F
NEW PHILLY     SUNNY     69  30  23 VRB3      30.05F
$$



USA.gov is the U.S. government's official web portal to all federal, state and local government web resources and services.